Regional Weather Roundup
Issued by NWS

Home | Current Version | Previous Version | Graphics & Text | Print | Product List | Glossary Off
Versions: 1 2 3 4 5 6 7 8 9 10 11 12 13 14 15 16 17 18 19 20 21 22 23 24 25 26 27 28 29 30 31 32 33 34 35 36 37 38 39 40 41 42 43 44 45 46 47 48 49 50

000
ASUS43 KLSX 212359
RWRMO

WEATHER SUMMARY FOR MISSOURI
NATIONAL WEATHER SERVICE SPRINGFIELD MO
700 PM CDT SUN SEP 21 2014

NOTE: "FAIR" INDICATES FEW OR NO CLOUDS BELOW 12,000 FEET WITH NO
       SIGNIFICANT WEATHER AND/OR OBSTRUCTIONS TO VISIBILITY.
       CURRENT SKY AND/OR WEATHER CONDITIONS ARE NOT AVAILABLE FOR
       CHILLICOTHE AND FARMINGTON.

MOZ001>031-035>038-043-044-053-054-220100-
...NORTHERN AND WESTERN MISSOURI...

CITY           SKY/WX    TMP DP  RH WIND       PRES   REMARKS
KANSAS CTY INT CLEAR     66  50  56 N7        30.18R
6HR MIN TEMP:  66; 6HR MAX TEMP:  76;

KANSAS C DTWN  CLEAR     71  48  43 N8        30.16R
6HR MIN TEMP:  71; 6HR MAX TEMP:  78;

LEE`S SUMMIT   CLEAR     69  48  47 N9        30.17R
6HR MIN TEMP:  69; 6HR MAX TEMP:  76; 6HR PCP: TRACE;

ST JOSEPH      CLEAR     67  50  54 N7        30.18R
6HR MIN TEMP:  67; 6HR MAX TEMP:  76;

KIRKSVILLE     CLOUDY    64  51  62 N8        30.16R
6HR MIN TEMP:  64; 6HR MAX TEMP:  72;


$$
MOZ066>068-077>081-088>096-101>105-220100-
...SOUTHWEST MISSOURI...

CITY           SKY/WX    TMP DP  RH WIND       PRES   REMARKS
SPRINGFIELD    CLEAR     69  51  52 N9        30.12S
6HR MIN TEMP:  69; 6HR MAX TEMP:  78;

JOPLIN         CLEAR     71  50  47 N6        30.14R
6HR MIN TEMP:  71; 6HR MAX TEMP:  79;


$$
MOZ032>034-039>042-045>050-055>058-069>072-220100-
...CENTRAL MISSOURI...

CITY           SKY/WX    TMP DP  RH WIND       PRES   REMARKS
COLUMBIA       CLEAR     66  49  54 N10       30.13R
6HR MIN TEMP:  66; 6HR MAX TEMP:  76;

JEFFERSON CITY CLEAR     71  48  43 N8        30.12R
6HR MIN TEMP:  71; 6HR MAX TEMP:  78;

ROLLA          CLEAR     66  49  54 N7        30.10R
6HR MIN TEMP:  66; 6HR MAX TEMP:  76;

SEDALIA        CLEAR     68  50  52 N8        30.15R
6HR MIN TEMP:  68; 6HR MAX TEMP:  79;

OSAGE BEACH    CLEAR     70  46  43 NW5       30.12R

$$
MOZ051-052-059>065-220100-
...EAST CENTRAL MISSOURI...

CITY           SKY/WX    TMP DP  RH WIND       PRES   REMARKS
ST LOUIS INTL  NOT AVBL
SPIRIT OF STL  PTCLDY    68  50  52 NW7       30.08R
6HR MIN TEMP:  68; 6HR MAX TEMP:  77;

ST CHARLES     CLEAR     67  51  56 N8        30.08R
6HR MIN TEMP:  67; 6HR MAX TEMP:  77;


$$
MOZ072>076-082>087-097>100-106>115-220100-
...SOUTH CENTRAL AND SOUTHEAST MISSOURI...

CITY           SKY/WX    TMP DP  RH WIND       PRES   REMARKS
CAPE GIRARDEAU CLEAR     70  51  51 N8        30.02R
6HR MIN TEMP:  70; 6HR MAX TEMP:  82;

FARMINGTON     CLEAR     70  45  40 N10G16    30.09R
6HR MIN TEMP:  70; 6HR MAX TEMP:  77;

POPLAR BLUFF   CLEAR     73  49  42 N6        30.02R
6HR MIN TEMP:  73; 6HR MAX TEMP:  84;

WEST PLAINS    CLEAR     70  47  43 N6        30.10R
6HR MIN TEMP:  70; 6HR MAX TEMP:  81;


$$



USA.gov is the U.S. government's official web portal to all federal, state and local government web resources and services.